Terug naar catalogus

COSMOS 374 DEB

ActiefLEO
NORAD 4667·DEBRIS·🇷🇺 Russia

Gelanceerd Oct 23, 1970 vanaf Baikonur Cosmodrome

Loading…

Volgende Passages (komende 24 uur)

TLE

VersSource: Space-Track

Epoch: Sep 14, 2026, 08:05 UTC

1 04667U 70089K   26257.33681430  .00003588  00000-0  88518-3 0  9994
2 04667  62.9286  26.5110 0659481 132.9719 232.8590 13.69124951700870

Volg COSMOS 374 DEB in realtime met AllMySat

Download on the App Store